[[{"header":{"parameterUnit":"m.s-1","parameterCategory":1,"la1":30.2991,"la2":30.254,"lo1":-89.0895,"lo2":-89.0444,"dy":0.0017,"dx":0.0017,"nx":28,"ny":28,"refTime":"2026-02-24T09:00:00:Z","depth":0,"parameterNumber":2,"parameterNumberName":"U-component_of_WINDS"},"data":[0,0,0,0,0,0,0,0,0,0,0,0,0,0,0,0,0,0,0,0,0,0,0,0,0,0,0,0,0,0,0,0,0,0,0,0,0,0,0,0,0,0,0,0,0,0,0,0,0,0,0,0,0,0,0,0,0,0,-2.113,-2.1131,0,-2.1211,-2.1212,-2.1213,-2.1125,-2.1122,-2.1119,-2.1116,-2.1199,-2.1205,-2.121,0,0,0,0,0,0,0,0,0,0,0,0,0,-2.09,-2.0905,-2.113,-2.1131,-2.1132,-2.1211,-2.1212,-2.1213,-2.1126,-2.1122,-2.1118,-2.1114,-2.1198,-2.1204,-2.121,0,0,0,0,0,0,0,0,0,0,0,0,0,-2.0992,-2.0906,-2.113,-2.1098,-2.1096,-2.1211,-2.1212,-2.1213,-2.1127,-2.1122,-2.1117,-2.1112,-2.1196,-2.1203,-2.1211,-2.1361,0,0,-2.1236,-2.1239,0,0,0,0,0,0,0,0,-2.0987,-2.1001,-2.1102,-2.11,-2.1098,-2.1153,-2.1161,-2.1263,-2.1128,-2.1115,-2.1116,-2.111,-2.1188,-2.1196,-2.1223,-2.1365,-2.1369,-2.1236,-2.1241,-2.1245,-2.1247,0,0,0,0,0,0,0,-2.0981,-2.0997,-2.1162,-2.1103,-2.1101,-2.108,-2.1087,-2.118,-2.1179,-2.1116,-2.111,-2.1121,-2.1186,-2.1215,-2.1224,-2.137,-2.1236,-2.1243,-2.1248,-2.1251,-2.1638,-2.1644,0,0,0,0,0,0,-2.0978,-2.0992,-2.1159,-2.1164,-2.1029,-2.1088,-2.1096,-2.1141,-2.1178,-2.1178,-2.1125,-2.1116,-2.1204,-2.1215,-2.1227,-2.1404,-2.1245,-2.1252,-2.1257,-2.1633,-2.164,-2.1645,0,0,0,0,0,0,-2.0973,-2.0994,-2.1156,-2.1077,-2.1096,-2.1097,-2.1148,-2.1145,-2.1174,-2.1184,-2.1183,-2.1155,-2.12,-2.1215,-2.1328,-2.1406,-2.1256,-2.1263,-2.1627,-2.1635,-2.1643,-2.1761,0,0,0,0,0,0,-2.0967,-2.0993,-2.105,-2.1079,-2.11,-2.1257,-2.1152,-2.115,-2.1188,-2.1177,-2.1212,-2.1213,-2.1197,-2.1317,-2.1336,-2.1414,-2.1269,-2.162,-2.163,-2.164,-2.175,-2.1772,-2.1791,0,0,0,0,0,-2.0959,-2.1081,-2.1053,-2.1074,-2.1172,-2.1262,-2.1274,-2.1254,-2.1194,-2.1252,-2.1258,-2.1212,-2.1394,-2.1329,-2.135,-2.1432,-2.1615,-2.1627,-2.1639,-2.1741,-2.1768,-2.1791,0,0,0,0,0,0,-2.1062,-2.1084,-2.1054,-2.1188,-2.1224,-2.1247,-2.1319,-2.1283,-2.1336,-2.1324,-2.1296,-2.1305,-2.1425,-2.1439,-2.1366,-2.1578,-2.1495,-2.1512,-2.1565,-2.1591,-2.1611,-2.1605,-2.1276,0,0,0,0,0,-2.11,-2.1171,-2.1186,-2.1303,-2.1322,-2.1318,-2.1356,-2.1337,-2.1373,-2.1387,-2.1402,-2.1439,-2.1504,-2.1548,-2.1609,-2.1751,-2.1758,-2.1818,-2.1838,-2.1855,-2.1871,-2.1947,-2.1973,-2.1686,-2.1686,-2.1686,0,0,-2.1179,-2.12,-2.1247,-2.1324,-2.1349,-2.1423,-2.1331,-2.1413,-2.1468,-2.14,-2.1507,-2.152,-2.1558,-2.1687,-2.1744,-2.1703,-2.1951,-2.1871,-2.1884,-2.1891,-2.1962,-2.1989,-2.2013,-2.1694,-2.1693,-2.1691,0,0,-2.1363,-2.1386,-2.1485,-2.1512,-2.1551,-2.1547,-2.1571,-2.1599,-2.1605,-2.1712,-2.1662,-2.1726,-2.184,-2.1869,-2.1899,-2.2092,-2.2051,-2.2112,-2.222,-2.2294,-2.2317,-2.2337,-2.2405,-2.243,-2.2127,-2.2128,-2.2128,0,-2.1457,-2.1567,-2.1541,-2.1627,-2.1662,-2.1603,-2.1703,-2.1731,-2.1788,-2.1814,-2.1766,-2.1906,-2.1928,-2.2062,-2.2109,-2.2135,-2.2161,-2.2109,-2.2315,-2.2335,-2.2353,-2.2419,-2.2444,-2.2135,-2.2134,-2.2133,-2.2132,0,-2.168,-2.1757,-2.1833,-2.1889,-2.1933,-2.2026,-2.2014,-2.2061,-2.2037,-2.2038,-2.2147,-2.2172,-2.2236,-2.2266,-2.2244,-2.2397,-2.237,-2.2319,-2.2235,-2.2388,-2.2449,-2.2474,-2.2145,-2.2142,-2.214,-2.2139,0,0,-2.1932,-2.1972,-2.2,-2.2024,-2.2063,-2.2121,-2.2211,-2.2273,-2.2314,-2.2355,-2.2429,-2.2526,-2.2479,-2.2513,-2.2494,-2.2559,-2.2709,-2.25,-2.25,-2.2538,-2.2879,-2.2917,-2.2946,-2.2682,-2.2687,-2.269,-2.2876,0,-2.2116,-2.2272,-2.2251,-2.24,-2.247,-2.2414,-2.2492,-2.2524,-2.2527,-2.2586,-2.2589,-2.2658,-2.259,-2.261,-2.2672,-2.2678,-2.2778,-2.2664,-2.2751,-2.2755,-2.2744,-2.2978,-2.3019,-2.3193,-2.2899,-2.2903,-2.2906,0,-2.2352,-2.2401,-2.2558,-2.2584,-2.2612,-2.2683,-2.2738,-2.2796,-2.283,-2.2827,-2.2864,-2.2833,-2.2922,-2.2835,-2.2958,-2.2881,-2.2915,-2.2923,-2.2929,-2.2937,-2.284,-2.2993,-2.3248,-2.3274,-2.2943,-2.294,-2.2938,0,-2.252,-2.2625,-2.2732,-2.2755,-2.2788,-2.2839,-2.2855,-2.2884,-2.2923,-2.297,-2.2995,-2.3052,-2.3084,-2.3129,-2.3114,-2.3052,-2.324,-2.3151,-2.324,-2.324,-2.3283,-2.328,-2.3547,-2.3304,-2.3304,-2.3303,-2.3303,0,-2.2729,-2.2827,-2.2808,-2.2874,-2.2982,-2.2956,-2.3063,-2.3072,-2.3099,-2.3165,-2.312,-2.3183,-2.3159,-2.322,-2.3209,-2.3312,-2.3326,-2.3326,-2.3322,-2.3331,-2.3331,-2.3353,-2.3341,-2.331,-2.3308,-2.3307,-2.3306,0,-2.2935,-2.2927,-2.3039,-2.3061,-2.3069,-2.3147,-2.3166,-2.3227,-2.3225,-2.331,-2.3328,-2.3326,-2.3396,-2.3385,-2.3463,-2.3455,-2.3583,-2.3564,-2.3572,-2.3568,-2.3657,-2.3649,-2.3948,-2.3986,-2.3718,-2.372,-2.3723,0,-2.3069,-2.3143,-2.3172,-2.3213,-2.3233,-2.33,-2.3338,-2.3315,-2.3357,-2.3401,-2.3458,-2.3523,-2.3575,-2.3689,-2.3694,-2.3753,-2.3735,-2.3836,-2.3744,-2.375,-2.3737,-2.3733,-2.374,-2.3855,-2.3858,-2.386,-2.3862,0,-2.3307,-2.3299,-2.3357,-2.3413,-2.346,-2.3503,-2.3541,-2.3578,-2.3558,-2.3607,-2.3678,-2.3718,-2.3797,-2.3863,-2.3917,-2.3933,-2.3895,-2.3891,-2.3915,-2.3924,-2.3926,-2.3926,-2.3622,-2.3885,-2.3882,-2.3881,-2.3879,-2.3879,-2.3482,-2.3545,-2.3575,-2.364,-2.3666,-2.3703,-2.3762,-2.3767,-2.3826,-2.3888,-2.387,-2.3951,-2.3981,-2.4051,-2.4073,-2.4135,-2.4098,-2.4132,-2.4141,-2.415,-2.4161,-2.3915,-2.4145,-2.4144,-2.4144,-2.4143,-2.4143,0,-2.3718,-2.3734,-2.3794,-2.3849,-2.39,-2.3859,-2.3899,-2.3944,-2.4016,-2.4048,-2.4099,-2.418,-2.4243,-2.4252,-2.4312,-2.436,-2.4344,-2.4376,-2.4373,-2.4377,-2.4191,-2.4164,-2.4389,-2.4389,-2.4388,-2.4388,-2.4388,-2.4388,-2.3847,-2.3951,-2.3946,-2.4062,-2.4077,-2.4155,-2.4182,-2.4215,-2.424,-2.4333,-2.4385,-2.439,-2.4413,-2.4474,-2.453,-2.4531,-2.4555,-2.4595,-2.4589,-2.4415,-2.439,-2.4367,-2.4342,-2.46,-2.46,-2.477,-2.4772,-2.4773]},{"header":{"parameterUnit":"m.s-1","parameterCategory":1,"la1":30.2991,"la2":30.254,"lo1":-89.0895,"lo2":-89.0444,"dy":0.0017,"dx":0.0017,"nx":28,"ny":28,"refTime":"2026-02-24T09:00:00:Z","depth":0,"parameterNumber":3,"parameterNumberName":"V-component_of_WINDS"},"data":[0,0,0,0,0,0,0,0,0,0,0,0,0,0,0,0,0,0,0,0,0,0,0,0,0,0,0,0,0,0,0,0,0,0,0,0,0,0,0,0,0,0,0,0,0,0,0,0,0,0,0,0,0,0,0,0,0,0,-4.6467,-4.6468,0,-4.6555,-4.6556,-4.6557,-4.6495,-4.6492,-4.6489,-4.6487,-4.6574,-4.6578,-4.6583,0,0,0,0,0,0,0,0,0,0,0,0,0,-4.6238,-4.6242,-4.6466,-4.6468,-4.6469,-4.6555,-4.6556,-4.6557,-4.6495,-4.6492,-4.6489,-4.6486,-4.6572,-4.6578,-4.6584,0,0,0,0,0,0,0,0,0,0,0,0,0,-4.6333,-4.6244,-4.6466,-4.6448,-4.6448,-4.6555,-4.6556,-4.6558,-4.6496,-4.6492,-4.6488,-4.6484,-4.657,-4.6577,-4.6584,-4.6713,0,0,-4.6607,-4.661,0,0,0,0,0,0,0,0,-4.6328,-4.6341,-4.645,-4.645,-4.6449,-4.651,-4.6507,-4.661,-4.6497,-4.6478,-4.6487,-4.6482,-4.6555,-4.6564,-4.6589,-4.6717,-4.6721,-4.6607,-4.6612,-4.6615,-4.6617,0,0,0,0,0,0,0,-4.6321,-4.6337,-4.6501,-4.6451,-4.6451,-4.6434,-4.6443,-4.6526,-4.6539,-4.6479,-4.6475,-4.6486,-4.6554,-4.6582,-4.6591,-4.6722,-4.6607,-4.6614,-4.6618,-4.6621,-4.6956,-4.6961,0,0,0,0,0,0,-4.6317,-4.6332,-4.6499,-4.6504,-4.6377,-4.6441,-4.6451,-4.6495,-4.6538,-4.654,-4.649,-4.6483,-4.6572,-4.6582,-4.6594,-4.6745,-4.6615,-4.6622,-4.6626,-4.6952,-4.6957,-4.6962,0,0,0,0,0,0,-4.6312,-4.6332,-4.6495,-4.6417,-4.6436,-4.645,-4.6499,-4.6498,-4.6526,-4.6546,-4.6547,-4.6517,-4.6569,-4.6583,-4.6683,-4.6747,-4.6625,-4.6632,-4.6947,-4.6954,-4.696,-4.705,0,0,0,0,0,0,-4.6306,-4.6331,-4.6381,-4.6419,-4.6441,-4.6585,-4.6503,-4.6503,-4.654,-4.6532,-4.6571,-4.6574,-4.6567,-4.6673,-4.6691,-4.6755,-4.6638,-4.6941,-4.695,-4.6958,-4.7042,-4.7059,-4.7075,0,0,0,0,0,-4.6298,-4.6403,-4.6384,-4.6405,-4.6505,-4.6589,-4.6602,-4.6593,-4.6545,-4.6595,-4.6607,-4.6572,-4.6738,-4.6684,-4.6703,-4.6771,-4.6937,-4.6947,-4.6957,-4.7034,-4.7056,-4.7074,0,0,0,0,0,0,-4.6372,-4.6408,-4.6387,-4.6508,-4.6546,-4.6579,-4.6641,-4.6616,-4.6668,-4.6658,-4.6643,-4.6653,-4.6757,-4.6774,-4.6713,-4.6896,-4.6829,-4.6844,-4.6881,-4.6902,-4.6918,-4.6911,-4.6644,0,0,0,0,0,-4.6403,-4.647,-4.6497,-4.6601,-4.6621,-4.6628,-4.6665,-4.6654,-4.6693,-4.6708,-4.6727,-4.6765,-4.6824,-4.6864,-4.6921,-4.7044,-4.705,-4.71,-4.7116,-4.713,-4.7142,-4.7206,-4.7228,-4.6995,-4.6995,-4.6995,0,0,-4.6466,-4.6494,-4.6537,-4.6616,-4.6645,-4.6713,-4.6642,-4.6718,-4.6767,-4.6719,-4.6815,-4.683,-4.687,-4.6982,-4.7032,-4.6999,-4.7208,-4.7143,-4.7153,-4.7158,-4.7219,-4.724,-4.726,-4.7002,-4.7001,-4.7,0,0,-4.6617,-4.6646,-4.6734,-4.6764,-4.6808,-4.6812,-4.6833,-4.6869,-4.6877,-4.6973,-4.6938,-4.6996,-4.71,-4.713,-4.7158,-4.7318,-4.7287,-4.7337,-4.7422,-4.7484,-4.7503,-4.7519,-4.7574,-4.7594,-4.7349,-4.7349,-4.735,0,-4.669,-4.6793,-4.6783,-4.6861,-4.6895,-4.6856,-4.6944,-4.6973,-4.7032,-4.7056,-4.7019,-4.7147,-4.7172,-4.7289,-4.7328,-4.7353,-4.7375,-4.7332,-4.7501,-4.7517,-4.7532,-4.7584,-4.7605,-4.7355,-4.7354,-4.7354,-4.7353,0,-4.6879,-4.6951,-4.7017,-4.7076,-4.7118,-4.7201,-4.7201,-4.7245,-4.7231,-4.7237,-4.7334,-4.7362,-4.7422,-4.7449,-4.7436,-4.7564,-4.7542,-4.7503,-4.7436,-4.756,-4.7609,-4.7629,-4.7363,-4.7361,-4.7359,-4.7358,0,0,-4.7079,-4.7131,-4.7155,-4.7181,-4.7226,-4.728,-4.736,-4.742,-4.7456,-4.7498,-4.7563,-4.7651,-4.7616,-4.7648,-4.7638,-4.7693,-4.7815,-4.7647,-4.7647,-4.7675,-4.7954,-4.7982,-4.8005,-4.7795,-4.7799,-4.7802,-4.795,0,-4.7231,-4.7371,-4.7364,-4.7495,-4.7559,-4.7521,-4.759,-4.7624,-4.7632,-4.7687,-4.7695,-4.7757,-4.7706,-4.7725,-4.7778,-4.7789,-4.787,-4.7778,-4.7853,-4.7856,-4.7843,-4.8031,-4.8061,-4.82,-4.7969,-4.7973,-4.7975,0,-4.7426,-4.7476,-4.7613,-4.7646,-4.7673,-4.7736,-4.7789,-4.7842,-4.7878,-4.788,-4.7916,-4.7896,-4.7974,-4.7905,-4.8011,-4.7949,-4.7979,-4.7988,-4.7993,-4.7999,-4.7922,-4.804,-4.8245,-4.8265,-4.8005,-4.8003,-4.8001,0,-4.7556,-4.7657,-4.7752,-4.7775,-4.7816,-4.7861,-4.788,-4.7912,-4.7948,-4.7994,-4.8017,-4.8071,-4.81,-4.8142,-4.8136,-4.8087,-4.8243,-4.8174,-4.8245,-4.8245,-4.8278,-4.8276,-4.8489,-4.83,-4.83,-4.83,-4.8299,0,-4.7725,-4.7811,-4.781,-4.7869,-4.7962,-4.7951,-4.8043,-4.8057,-4.8086,-4.8145,-4.8115,-4.817,-4.816,-4.8215,-4.821,-4.8297,-4.8311,-4.8313,-4.8311,-4.8315,-4.8315,-4.8334,-4.8323,-4.8305,-4.8304,-4.8303,-4.8302,0,-4.7886,-4.789,-4.799,-4.8021,-4.8031,-4.8098,-4.8123,-4.8177,-4.8183,-4.8257,-4.8274,-4.8282,-4.8344,-4.8342,-4.8413,-4.841,-4.8517,-4.8504,-4.8505,-4.8502,-4.8572,-4.8564,-4.8803,-4.8833,-4.8626,-4.8628,-4.863,0,-4.7993,-4.8058,-4.8096,-4.8133,-4.8155,-4.8217,-4.8253,-4.8244,-4.8283,-4.8328,-4.8376,-4.8436,-4.8483,-4.8584,-4.8595,-4.8648,-4.8636,-4.8715,-4.8643,-4.8645,-4.8635,-4.863,-4.8636,-4.8729,-4.8731,-4.8733,-4.8735,0,-4.8182,-4.8181,-4.8235,-4.829,-4.8334,-4.8376,-4.8415,-4.8447,-4.8442,-4.8486,-4.855,-4.8587,-4.8659,-4.8718,-4.8769,-4.8786,-4.8759,-4.8758,-4.8776,-4.8781,-4.8778,-4.8779,-4.8542,-4.8752,-4.875,-4.8749,-4.8748,-4.8747,-4.8318,-4.8373,-4.8408,-4.8469,-4.8497,-4.8534,-4.8585,-4.8597,-4.865,-4.8709,-4.87,-4.8771,-4.8803,-4.8869,-4.8891,-4.8945,-4.8916,-4.8944,-4.8951,-4.8957,-4.8964,-4.8771,-4.8954,-4.8954,-4.8953,-4.8953,-4.8952,0,-4.8504,-4.8525,-4.8581,-4.8636,-4.8683,-4.8655,-4.8696,-4.8736,-4.88,-4.8833,-4.888,-4.8952,-4.9008,-4.9024,-4.9078,-4.9118,-4.9106,-4.9132,-4.9128,-4.9132,-4.8988,-4.8965,-4.914,-4.914,-4.914,-4.914,-4.914,-4.914,-4.8607,-4.8697,-4.8699,-4.8803,-4.8822,-4.8892,-4.8917,-4.895,-4.8976,-4.9058,-4.9106,-4.9115,-4.914,-4.9196,-4.9245,-4.9248,-4.9269,-4.9299,-4.9297,-4.9161,-4.9143,-4.9125,-4.9103,-4.9304,-4.9304,-4.9436,-4.9437,-4.9438]}]]